Tracking 29059 objects as of 19-Jun-2024
HD Live streaming from Space Station
objects crossing your sky now

ONEWEB-0329

Track ONEWEB-0329 now!
10-day predictions
ONEWEB-0329 is classified as:


NORAD ID: 49107
Int'l Code: 2021-075AJ
Perigee: 1,199.5 km
Apogee: 1,202.4 km
Inclination: 87.9 °
Period: 109.3 minutes
Semi major axis: 7571 km
RCS: Unknown
Launch date: August 21, 2021
Source: United Kingdom (UK)
Launch site: TYURATAM MISSILE AND SPACE COMPLEX (TTMTR)
Your satellite tracking list
Your tracking list is empty




NASA's NSSDC Master Catalog

Two Line Element Set (TLE):
1 49107U 21075AJ  24170.87767567 -.00002331  00000-0 -60401-2 0  9997
2 49107  87.9169 150.8749 0001875  85.6416 274.4930 13.17626401137672
Source of the keplerian elements: AFSPC